Weather History for Ionia, MI

Change the Weather History Date:

Friday, February 21, 2014

  Actual Average (KGRR) Record (KGRR)
Temperature  
Mean Temperature 33 °F 28 °F  
Max Temperature 38 °F 35 °F 66 °F (1930)
Min Temperature 28 °F 21 °F -8 °F (1968)
Degree Days  
Heating Degree Days 32 37  
Month to date heating degree days 817  
Since 1 July heating degree days 4524  
Cooling Degree Days 0 0  
Month to date cooling degree days 0  
Year to date cooling degree days 0  
Moisture  
Dew Point 23 °F    
Average Humidity 72    
Maximum Humidity 99    
Minimum Humidity 55    
Precipitation  
Precipitation 0.00 in 0.06 in 2.96 in (1997)
Month to date precipitation 1.27  
Year to date precipitation 3.36  
Snow  
Snow 0.00 in 0.50 in 6.00 in (1898)
Month to date snowfall 11.5  
Since 1 July snowfall 61.5  
Snow Depth -    
Sea Level Pressure  
Sea Level Pressure 29.47 in    
Wind  
Wind Speed 27 mph (WSW)    
Max Wind Speed 41 mph    
Max Gust Speed 58 mph    
Visibility 8 miles    
Events Snow    
T = Trace of Precipitation, MM = Missing Value Source: NWS Daily Summary

Daily Weather History Graph

Daily Weather History Graph

Search for Another Location

Airport:

Trip Planner

Search our weather history database for the weather conditions in past years. The results will help you decide how hot, cold, wet, or windy it might be!

Date:

Astronomy

Feb. 21, 2014 Rise Set
Actual Time 7:28 AM EST 6:19 PM EST
Civil Twilight 7:00 AM EST 6:48 PM EST
Nautical Twilight 6:27 AM EST 7:21 PM EST
Astronomical Twilight 5:54 AM EST 7:54 PM EST
Moon 12:21 AM EST (2/21) 10:42 AM EST (2/21)
Length of Visible Light 11h 48m
Length of Day
10h 50m
Waning Gibbous, 61% of the Moon is Illuminated
Feb 21
Waning Gibbous
Feb 22
Last Quarter
Mar 1
New
Mar 8
First Quarter
Mar 16
Full

Hourly Weather History & Observations

Time (EST) Temp. Windchill Dew Point Humidity Pressure Visibility Wind Dir Wind Speed Gust Speed Precip Events Conditions
12:14 AM 38.5 °F 27.1 °F 38.1 °F 99% 29.33 in 10.0 mi WSW 26.5 mph 29.9 mph N/A   Overcast
12:34 AM 37.9 °F 27.6 °F 35.4 °F 91% 29.34 in 10.0 mi WSW 20.7 mph 26.5 mph N/A   Overcast
12:54 AM 37.4 °F 28.9 °F 34.2 °F 88% 29.34 in 10.0 mi WSW 13.8 mph 21.9 mph N/A   Overcast
1:14 AM 37.2 °F 26.4 °F 31.8 °F 81% 29.34 in 10.0 mi WSW 21.9 mph 32.2 mph N/A   Overcast
1:34 AM 37.4 °F 25.9 °F 30.2 °F 75% 29.34 in 10.0 mi SW 25.3 mph 41.4 mph N/A   Overcast
1:54 AM 36.7 °F 23.6 °F 29.8 °F 76% 29.34 in 10.0 mi SW 32.2 mph 41.4 mph N/A   Overcast
2:14 AM 36.5 °F 24.0 °F 29.5 °F 76% 29.35 in 10.0 mi SW 28.8 mph 36.8 mph N/A   Overcast
2:34 AM 36.1 °F 23.9 °F 29.3 °F 76% 29.36 in 10.0 mi SW 26.5 mph 38.0 mph N/A   Overcast
2:54 AM 35.8 °F 23.9 °F 29.1 °F 77% 29.36 in 10.0 mi SW 24.2 mph 34.5 mph N/A   Overcast
3:14 AM 35.8 °F 23.7 °F 29.1 °F 77% 29.36 in 10.0 mi SW 25.3 mph 32.2 mph N/A   Overcast
3:34 AM 35.8 °F 23.2 °F 28.9 °F 76% 29.35 in 10.0 mi SW 27.6 mph 33.4 mph N/A   Overcast
3:54 AM 35.6 °F 23.4 °F 28.6 °F 76% 29.36 in 10.0 mi SW 25.3 mph 46.0 mph N/A   Overcast
4:14 AM 35.6 °F 23.2 °F 28.4 °F 75% 29.36 in 10.0 mi SW 26.5 mph 41.4 mph N/A   Overcast
4:34 AM 35.8 °F 23.0 °F 28.2 °F 74% 29.36 in 10.0 mi SW 28.8 mph 40.3 mph N/A   Overcast
4:54 AM 35.8 °F 23.7 °F 28.2 °F 74% 29.35 in 10.0 mi SW 25.3 mph 36.8 mph N/A   Overcast
5:14 AM 36.0 °F 24.2 °F 28.0 °F 73% 29.35 in 10.0 mi SW 24.2 mph 36.8 mph N/A   Overcast
5:34 AM 35.8 °F 23.7 °F 28.2 °F 74% 29.36 in 10.0 mi SW 25.3 mph 31.1 mph N/A   Overcast
5:54 AM 35.6 °F 22.5 °F 28.4 °F 75% 29.35 in 10.0 mi SW 29.9 mph 35.7 mph N/A   Overcast
6:14 AM 35.2 °F 22.7 °F 28.4 °F 76% 29.37 in 10.0 mi SW 26.5 mph 35.7 mph N/A   Overcast
6:34 AM 35.1 °F 23.8 °F 28.8 °F 78% 29.37 in 10.0 mi SW 20.7 mph 35.7 mph N/A   Overcast
6:54 AM 34.9 °F 22.5 °F 28.8 °F 78% 29.36 in 10.0 mi SW 25.3 mph 40.3 mph N/A Snow Light Snow
7:14 AM 34.7 °F 22.0 °F 28.6 °F 78% 29.37 in 10.0 mi SW 26.5 mph 40.3 mph N/A Snow Light Snow
7:34 AM 34.3 °F 21.0 °F 27.7 °F 77% 29.37 in 10.0 mi SW 28.8 mph 39.1 mph N/A   Overcast
7:54 AM 34.0 °F 20.1 °F 26.6 °F 74% 29.36 in 7.0 mi SW 31.1 mph 57.5 mph N/A   Overcast
8:14 AM 33.1 °F 19.8 °F 26.8 °F 78% 29.37 in 10.0 mi SW 26.5 mph 38.0 mph N/A   Overcast
8:34 AM 33.1 °F 17.1 °F 27.1 °F 79% 29.37 in 5.0 mi SW 41.4 mph 51.8 mph N/A   Haze
8:54 AM 32.0 °F 17.4 °F 27.0 °F 82% 29.37 in 4.0 mi SW 31.1 mph 50.6 mph N/A   Haze
9:14 AM 32.0 °F 17.0 °F 27.7 °F 84% 29.37 in 4.0 mi WSW 33.4 mph 43.7 mph N/A   Overcast
9:34 AM 32.2 °F 17.6 °F 27.1 °F 82% 29.38 in 10.0 mi SW 31.1 mph 46.0 mph N/A   Overcast
9:54 AM 32.0 °F 17.2 °F 26.6 °F 80% 29.39 in 2.5 mi WSW 32.2 mph 46.0 mph N/A   Haze
10:14 AM 31.1 °F 16.2 °F 26.4 °F 83% 29.40 in 2.5 mi WSW 31.1 mph 41.4 mph N/A Snow Light Snow
10:34 AM 31.1 °F 15.9 °F 26.1 °F 82% 29.40 in 1.5 mi WSW 32.2 mph 49.5 mph N/A Snow Light Snow
10:54 AM 30.6 °F 15.7 °F 25.5 °F 82% 29.41 in 1.2 mi WSW 29.9 mph 41.4 mph N/A Snow Light Snow
11:14 AM 30.6 °F 16.7 °F 24.8 °F 79% 29.42 in 4.0 mi WSW 25.3 mph 39.1 mph N/A   Haze
11:34 AM 30.0 °F 16.3 °F 23.9 °F 78% 29.43 in 3.0 mi WSW 24.2 mph 44.9 mph N/A   Haze
11:54 AM 30.0 °F 15.2 °F 24.3 °F 79% 29.44 in 3.0 mi WSW 28.8 mph 38.0 mph N/A   Haze
12:14 PM 30.0 °F 15.4 °F 24.3 °F 79% 29.44 in 4.0 mi SW 27.6 mph 40.3 mph N/A Snow Light Snow
12:34 PM 29.7 °F 14.2 °F 24.6 °F 81% 29.44 in 1.2 mi WSW 31.1 mph 39.1 mph N/A Snow Light Snow
12:54 PM 30.2 °F 15.4 °F 23.5 °F 76% 29.44 in 2.5 mi WSW 28.8 mph 39.1 mph N/A   Haze
1:14 PM 29.7 °F 15.8 °F 24.4 °F 81% 29.45 in 2.0 mi WSW 24.2 mph 31.1 mph N/A Snow Light Snow
1:34 PM 29.7 °F 12.5 °F 22.3 °F 74% 29.46 in 3.0 mi WSW 40.3 mph 49.5 mph N/A   Haze
1:54 PM 29.8 °F 14.5 °F 21.2 °F 70% 29.47 in 10.0 mi WSW 31.1 mph 44.9 mph N/A   Overcast
2:14 PM 28.9 °F 12.1 °F 21.0 °F 72% 29.49 in 7.0 mi WSW 36.8 mph 47.2 mph N/A   Overcast
2:34 PM 28.8 °F 12.1 °F 20.5 °F 71% 29.49 in 7.0 mi WSW 35.7 mph 42.6 mph N/A   Overcast
2:54 PM 28.4 °F 14.1 °F 20.3 °F 72% 29.50 in 7.0 mi WSW 24.2 mph 44.9 mph N/A   Overcast
3:14 PM 28.4 °F 12.3 °F 20.3 °F 72% 29.51 in 7.0 mi WSW 32.2 mph 43.7 mph N/A Snow Light Snow
3:34 PM 28.6 °F 13.2 °F 20.1 °F 71% 29.52 in 10.0 mi WSW 28.8 mph 42.6 mph N/A   Overcast
3:54 PM 29.3 °F 13.5 °F 19.8 °F 68% 29.52 in 10.0 mi WSW 32.2 mph 46.0 mph N/A   Overcast
4:14 PM 29.8 °F 15.7 °F 20.1 °F 67% 29.53 in 10.0 mi WSW 25.3 mph 39.1 mph N/A   Overcast
4:34 PM 30.2 °F 14.9 °F 20.1 °F 66% 29.54 in 10.0 mi WSW 31.1 mph 44.9 mph N/A   Overcast
4:54 PM 30.2 °F 15.7 °F 19.9 °F 66% 29.55 in 10.0 mi WSW 27.6 mph 36.8 mph N/A   Overcast
5:14 PM 30.2 °F 13.7 °F 19.8 °F 65% 29.55 in 10.0 mi WSW 38.0 mph 47.2 mph N/A   Overcast
5:34 PM 30.2 °F 15.4 °F 19.0 °F 63% 29.56 in 10.0 mi WSW 28.8 mph 40.3 mph N/A   Mostly Cloudy
5:54 PM 29.8 °F 14.5 °F 18.5 °F 63% 29.57 in 7.0 mi WSW 31.1 mph 48.3 mph N/A   Scattered Clouds
6:14 PM 29.3 °F 13.5 °F 17.6 °F 62% 29.58 in 10.0 mi WSW 32.2 mph 43.7 mph N/A   Clear
6:34 PM 29.1 °F 14.0 °F 16.3 °F 59% 29.59 in 10.0 mi WSW 28.8 mph 42.6 mph N/A   Clear
6:54 PM 28.9 °F 14.8 °F 16.3 °F 59% 29.60 in 10.0 mi WSW 24.2 mph 35.7 mph N/A   Clear
7:14 PM 28.8 °F 14.0 °F 16.5 °F 60% 29.61 in 10.0 mi WSW 26.5 mph 36.8 mph N/A   Clear
7:34 PM 28.8 °F 14.6 °F 16.5 °F 60% 29.62 in 10.0 mi WSW 24.2 mph 38.0 mph N/A   Clear
7:54 PM 28.8 °F 13.2 °F 15.8 °F 58% 29.62 in 10.0 mi WSW 29.9 mph 38.0 mph N/A   Clear
8:14 PM 28.6 °F 13.5 °F 14.7 °F 56% 29.62 in 10.0 mi WSW 27.6 mph 39.1 mph N/A   Clear
8:34 PM 28.6 °F 12.7 °F 14.4 °F 55% 29.63 in 10.0 mi WSW 31.1 mph 46.0 mph N/A   Clear
8:54 PM 28.4 °F 13.3 °F 14.5 °F 56% 29.64 in 10.0 mi WSW 27.6 mph 41.4 mph N/A   Clear
9:14 PM 28.4 °F 13.0 °F 14.2 °F 55% 29.64 in 10.0 mi WSW 28.8 mph 40.3 mph N/A   Clear
9:34 PM 28.4 °F 12.7 °F 14.2 °F 55% 29.65 in 10.0 mi WSW 29.9 mph 42.6 mph N/A   Clear
9:54 PM 28.2 °F 12.5 °F 14.9 °F 57% 29.66 in 10.0 mi WSW 29.9 mph 39.1 mph N/A   Clear
10:14 PM 28.4 °F 13.5 °F 14.9 °F 57% 29.67 in 10.0 mi WSW 26.5 mph 34.5 mph N/A   Clear
10:34 PM 28.4 °F 13.8 °F 15.8 °F 59% 29.67 in 10.0 mi WSW 25.3 mph 31.1 mph N/A   Clear
10:54 PM 28.9 °F 14.8 °F 16.2 °F 59% 29.68 in 10.0 mi WSW 24.2 mph 34.5 mph N/A   Clear
11:14 PM 28.9 °F 14.8 °F 16.2 °F 59% 29.68 in 10.0 mi WSW 24.2 mph 32.2 mph N/A   Clear
11:34 PM 28.8 °F 15.2 °F 16.5 °F 60% 29.68 in 10.0 mi WSW 21.9 mph 33.4 mph N/A   Clear
11:54 PM 28.6 °F 14.1 °F 17.1 °F 62% 29.68 in 10.0 mi WSW 25.3 mph 31.1 mph N/A   Clear